User: anonymous   Login
Location: Mactaquac Provincial Park
(45.9573°N, 66.8897°W)
Time: 10:58:06
(UTC-03:00)
Language:

Cosmos 1766 - Orbit

View from above orbital plane
View from above orbital plane
View from above satellite
View from above satellite

Ground track
Ground track

The orbit data is extracted from the following two-line orbital elements,

1 16881U 86055A   17234.69657726  .00000515  00000-0  29611-4 0  9997
2 16881  82.5121 318.6225 0016197 228.3642 131.6201 15.10194504691474
Epoch (UTC): 22 August 2017 16:43:04
Eccentricity: 0.0016197
inclination: 82.5121°
perigee height: 524 km
apogee height: 547 km
right ascension of ascending node: 318.6225°
argument of perigee: 228.3642°
revolutions per day: 15.10194504
mean anomaly at epoch: 131.6201°
orbit number at epoch: 69147

The dashed part of the orbit path shows where the satellite is in the earth's shadow,  

DLR